Погода Фролово

Погода Фролово : погода сейчас, прогноз погоды и архив. Всё, что Вы хотите узнать о погоде Фролово!

Поиск расширенной информации на нашем сайте:

Другие новости

Новости СМИ2

Главная страница сайта

Новости сайта

02.10.2013

Напоминаем, что на нашем новом сайте вы можете получить высокодетализированные прогнозы погоды по пунктам России, СНГ и мира (включающие важные для авиации метеовеличины, такие как направление и скорость ветра, видимость, явления погоды, количество и форма облачности, нижняя и верхняя граница облачности), а также ознакомиться с разнообразными материалами по авиационной метеорологии и подборкой полезных ссылок на эту тему.

Сайт Метеоцентр.Азия посвящён разработке технологий оптимизации авиаметеорологического обслуживания, включая проектирование и перспективное создание нескольких автоматизированных авиаметеорологических систем:
- система выпуска высокодетальных прогностических карт явлений погоды для нижнего воздушного пространства по России и ближнему зарубежью;
- система верификации прогнозов TAF (выпускаемых синоптиками официальных АМСГ РФ и ближнего зарубежья) и AUTOTAF (выпускаемых сайтом Метеоцентр.Азия) - выявление ошибок, онлайн-сопоставление с фактической погодой METAR, автоматическое внесение коррективов в прогнозы при резком отклонении фактической погоды от прогноза, подсчёт оправдываемости прогнозов по элементам и в целом;
- система обработки, анализа и отображения авиаметеорологической информации для применения провайдерами метеорологической информации.


Погода Фролово - сегодня

Время (UTC), дата Ветер
(°,м/с) 
Видим.   Явления Облачность Т
(°С)
Тd
(°С)
f(%) Тe
(°С)
Pmin
(гПа)
dP
(гПа)
Po
(мм)
O2
(г/м3)
Тmin Tmax R s Состояние
почвы
09 18.01.17 010 (С) 10 км    9/9 600 м 
[Sc]
-7.5 -9 89 -9  1035.7  765  318           
12 18.01.17 040 (СВ) 10 км    9/9 600 м 
[Sc]
-7.1 -8.7 88 -10  1035.3  -0.4  765  317           
15 18.01.17 тихо ()   20000 м    9/9 600 м 
[Sc]
-8.3 -9.5 91 -8  1036.1  0.7  765  319    -6.5       
18 18.01.17 350 (С) 20000 м    9/9 600 м 
[Sc]
-7.7 -8.2 96 -9  1036.5  0.4  766  318           
21 18.01.17 340 (С) 20000 м    9/9 600 м 
[Sc]
-7.2 -7.7 96 -10  1036.1  -0.4  765  318           
00 19.01.17 330 (СЗ) 4000 м  дымка  10/10 300 м 
[St]
-8.3 -8.9 95 -10  1036  0.1  765  319           
03 19.01.17 330 (СЗ) 20000 м    9/9 600 м 
[Sc]
-7.4 -8.1 95 -10  1035.6  -0.3  765  318  -12      13  равномерный
сухой снег
100% 
06 19.01.17 310 (СЗ) 10 км    9/0 средняя 
[Ac trans]
-7 -9.2 84 -8  1036  0.4  765  317           
09 19.01.17 290 (З) 10 км    9/9 600 м 
[Sc]
-6.2 -9 81 -9  1035.7  -0.3  765  316           
12 19.01.17 270 (З) 10 км    6/0 верхняя 
[Cs]
-4.7 -9.2 71 -7  1034.3  -1.3  764  314           
15 19.01.17 240 (ЮЗ) 20000 м    8/0 верхняя 
[Cs]
-8.7 -10.8 85 -10  1033.7  -0.8  763  319    -4.4       
18 19.01.17 240 (ЮЗ) 20000 м    ясно 
-11.9 -12.6 95 -14  1033  -0.9  763  323           
21 19.01.17 240 (ЮЗ) 20000 м    ясно 
-12.9 -13.9 92 -15  1031.9  -1.1  762  324           
00 20.01.17 250 (З) 20000 м    ясно 
-12.3 -13.4 91 -14  1029.6  -2.1  760  322           
03 20.01.17 230 (ЮЗ) 20000 м    ясно 
-12.5 -14.1 88 -16  1026.9  -2.7  758  321  -13.3      12  равномерный
сухой снег
100% 
06 20.01.17 230 (ЮЗ) 10 км    10/0 средняя 
[Ac As]
-10.5 -12.4 86 -15  1024.8  -2  757  318           
09 20.01.17 240 (ЮЗ) 7-12{13}  10 км    8/0 средняя 
[Ac und]
-8.5 -11.7 78 -14  1022.4  -2.2  755  315           
12 20.01.17 250 (З) 5-10{12}  4000 м  слаб. снег  10/10 300 м 
[Frnb|Ns]
-7.5 -9.9 83 -12  1020.3  -2  754  313           
15 20.01.17 260 (З) 4{10}  10 км  слаб. снег  10/10 300 м 
[Frnb|Ns]
-7.5 -9.7 84 -11  1019.3  -0.9  753  313    -7.4  0.6     
18 20.01.17 270 (З) 20000 м  {снег}  9/9 600 м 
[Sc]
-7.1 -7.5 97 -11  1019.1  0.1  753  312           
21 20.01.17 250 (З) 20000 м    10/0 средняя 
[Ac As]
-6.4 -7 95 -9  1018.8  -0.3  753  311           
00 21.01.17 260 (З) 20000 м    10/0 средняя 
[Ac As]
-5.4 -6 96 -8  1018.1  -0.6  752  310           
03 21.01.17 260 (З) 20000 м    10/0 средняя 
[Ac As]
-5 -5.7 95 -7  1016.9  -1.1  751  309  -7.5    0.0  12  равномерный
сухой снег
100% 
06 21.01.17 250 (З) 10 км    10/0 средняя 
[Ac As]
-4.9 -5.9 93 -8  1016.7  -0.2  751  309           
09 21.01.17 250 (З) 10 км    9/9 600 м 
[Sc]
-3.3 -6 82 -7  1015.2  -1.5  750  307           
Время (UTC), дата Ветер
(°,м/с) 
Видим.   Явления Облачность Т
(°С)
Тd
(°С)
f(%) Тe
(°С)
Pmin
(гПа)
dP
(гПа)
Po
(мм)
O2
(г/м3)
Тmin Tmax R s Состояние
почвы

Для получения пояснительной информации подведите курсор к названию столбца.

ПОГОДА Фролово - архив

Всё, что Вы хотите узнать о погоде Фролово - удобно и подробно!

Выберите нужную дату (начиная с 1 января 2015* года) и нажмите кнопку "Найти".
Будут отображены архивные сводки погоды по пункту Фролово, начиная с указанной даты.


Отображать данные в формате CSV (для использования в таблицах Excel)


Внимание! Наш архив погоды предназначен исключительно для личного некоммерческого использования в познавательных целях. Если Вам необходимы официальные справки о состоянии погоды (для производственных, юридических, коммерческих и т.п. целей), обращайтесь в органы Росгидромета.

*Примечание: данная дата относится к архиву по метеостанциям СССР (Россия, СНГ, Балтия).
Архив по метеостанциям Зарубежной Европы и Азии (кроме Китая) хранится 10 дней, по другим регионам земного шара (Китай, Африка, Америка, Австралия, Океания) - 1 день.

Фролово - район местоположения метеостанции


Название, широта, долгота, высота метеостанции:
Фролово 49.8°ш. 43.7°д. 119 м над ур. моря [Российская Федерация]

Дополнительная информация

В oтличие oт бoльшинства пoгoдных сайтoв мы публикуем пoдрoбную метеoинфoрмацию в детальнoм прoфессиoнальнoм фoрмате.

Характеристики температуры и влажнoсти вoздуха измеряются на высoте 2 м в тени вдали oт зданий и деревьев.
Скoрoсть ветра измеряется на высoте 10 м (на урoвне рoста челoвека скoрoсть ветра ниже в 1.5-2 раза). Если метеoстанция нахoдится в гoрoде или в лесу, тo скoрoсть ветра занижена на 2-4 м/с пo сравнению с oткрытым местoм. Скoрoсть ветра над акватoриями крупных рек и oзёр, а также на вершинах хoлмoв на 2-5 м/с выше, чем в oбычных услoвиях.
Атмoсфернoе давление в разных тoчках местнoсти мoжет значительнo oтличаться oт давления на метеoстанции, в зависимoсти oт услoвий рельефа (при пoдъёме на 10 м давление пoнижается примернo на 1 мм рт.ст.).